This is the latest recevied weather packets stored in our database for station/object PP5FMM-10. If no packets are shown the sender has not sent any weather packets the latest 1 day(s).
| Time | Temp. | Humidity | Pressure | Rain* | Wind** | Luminosity | Snow |
|---|---|---|---|---|---|---|---|
| 1778086452 | 27.22° C | 78% | 1016.6 hPa | - | - | - | - |
| 1778085552 | 27.22° C | 78% | 1016.7 hPa | - | - | - | - |
| 1778084656 | 26.11° C | 81% | 1017 hPa | - | - | - | - |
| 1778084652 | 26.11° C | 81% | 1017 hPa | - | - | - | - |
| 1778083756 | 26.11° C | 81% | 1017.2 hPa | - | - | - | - |
| 1778082856 | 26.11° C | 81% | 1017.4 hPa | - | - | - | - |
| 1778081051 | 25.56° C | 78% | 1017.9 hPa | - | - | - | - |
| 1778080151 | 25.56° C | 78% | 1018.1 hPa | - | - | - | - |
| 1778079251 | 26.11° C | 78% | 1018.4 hPa | - | - | - | - |
| 1778078355 | 25.56° C | 79% | 1018.8 hPa | - | - | - | - |
| 1778076550 | 25.56° C | 78% | 1019.3 hPa | - | - | - | - |
| 1778075650 | 25.56° C | 78% | 1019.6 hPa | - | - | - | - |
| 1778074750 | 25.56° C | 78% | 1019.6 hPa | - | - | - | - |
| 1778073850 | 25.56° C | 78% | 1019.6 hPa | - | - | - | - |
| 1778072055 | 25.56° C | 78% | 1019.7 hPa | - | - | - | - |
| 1778069349 | 25° C | 79% | 1019.7 hPa | - | - | - | - |
| 1778065748 | 25° C | 79% | 1019.4 hPa | - | - | - | - |
| 1778064855 | 25° C | 79% | 1019.4 hPa | - | - | - | - |
| 1778064848 | 25° C | 79% | 1019.4 hPa | - | - | - | - |
| 1778063051 | 24.44° C | 80% | 1018.9 hPa | - | - | - | - |
| 1778063047 | 24.44° C | 80% | 1018.9 hPa | - | - | - | - |
| 1778062188 | 24.44° C | 80% | 1018.4 hPa | - | - | - | - |
| 1778062147 | 24.44° C | 80% | 1018.4 hPa | - | - | - | - |
| 1778061251 | 24.44° C | 80% | 1018.4 hPa | - | - | - | - |
| 1778060351 | 25° C | 79% | 1018.4 hPa | - | - | - | - |
* Rain since midnight (hover to see other rain measurements)
** Current wind speed in m/s (hover to see current wind gust speed)